Location: Borotín
(49.5055°N, 14.6142°E)
Time: 16:29:51
(UTC+00:00)

UNK - Pass Details

Date: 27 May 2022
Orbit: 666 x 684 km, 98.2° (Epoch: 25 June)

Event Time Altitude Azimuth Distance (km) Brightness Sun altitude
Exits shadow 01:15:38 15° 181° (S) 1,794 5.4 -13.0°
Maximum altitude 01:19:22 58° 259° (WSW) 784 3.8 -12.6°
Drops below altitude 10° 01:23:58 10° 339° (NNW) 2,123 6.8 -12.2°
Sets 01:26:15 0° 343° (NNW) 3,045 7.7 -12.0°
